Time,TemperatureF,DewpointF,PressureIn,WindDirection,WindDirectionDegrees,WindSpeedMPH,WindSpeedGustMPH,Humidity,HourlyPrecipIn,Conditions,Clouds,dailyrainin,SolarRadiationWatts/m^2,SoftwareType,DateUTC
2013-09-24 00:04:00,52.5,47.8,29.99,South,172,10.0,10.0,84,0.00,CLR,BKN,0.00,0.0,WeatherDisplay:10.37,2013-09-24 05:04:00,
2013-09-24 00:09:00,52.3,47.9,29.99,South,178,12.7,12.7,85,0.00,CLR,BKN,0.00,0.0,WeatherDisplay:10.37,2013-09-24 05:09:00,
2013-09-24 00:14:00,52.2,47.8,29.99,SSE,165,11.5,11.5,85,0.00,CLR,BKN,0.00,0.0,WeatherDisplay:10.37,2013-09-24 05:14:00,
2013-09-24 00:19:00,52.0,47.6,29.99,SSE,167,10.4,10.4,85,0.00,CLR,BKN,0.00,0.0,WeatherDisplay:10.37,2013-09-24 05:19:00,
2013-09-24 00:25:00,51.9,47.5,29.99,South,170,9.0,9.0,85,0.00,CLR,BKN,0.00,0.0,WeatherDisplay:10.37,2013-09-24 05:25:00,
2013-09-24 00:30:00,51.7,47.3,29.99,South,173,7.0,12.0,85,0.00,CLR,BKN,0.00,0.0,WeatherDisplay:10.37,2013-09-24 05:30:00,
2013-09-24 00:35:00,51.6,47.2,29.99,South,173,10.4,10.4,85,0.00,CLR,BKN,0.00,0.0,WeatherDisplay:10.37,2013-09-24 05:35:00,
2013-09-24 00:40:00,51.4,47.4,29.99,South,172,7.0,12.0,86,0.00,CLR,BKN,0.00,0.0,WeatherDisplay:10.37,2013-09-24 05:40:00,
2013-09-24 00:45:00,51.3,47.3,29.99,South,173,7.0,12.0,86,0.00,CLR,BKN,0.00,0.0,WeatherDisplay:10.37,2013-09-24 05:45:00,
2013-09-24 00:50:00,51.2,47.2,30.00,South,171,8.0,12.0,86,0.00,CLR,BKN,0.00,0.0,WeatherDisplay:10.37,2013-09-24 05:50:00,
2013-09-24 00:55:00,51.1,47.1,30.00,SSE,166,8.0,12.0,86,0.00,CLR,BKN,0.00,0.0,WeatherDisplay:10.37,2013-09-24 05:55:00,
2013-09-24 01:00:00,51.0,47.3,30.00,South,173,13.8,13.8,87,0.00,CLR,BKN,0.00,0.0,WeatherDisplay:10.37,2013-09-24 06:00:00,
2013-09-24 01:05:00,50.8,47.1,30.00,South,169,7.0,13.0,87,0.00,CLR,BKN,0.00,0.0,WeatherDisplay:10.37,2013-09-24 06:05:00,
2013-09-24 01:10:00,50.7,47.0,30.00,South,174,8.0,13.0,87,0.00,CLR,BKN,0.00,0.0,WeatherDisplay:10.37,2013-09-24 06:10:00,
2013-09-24 01:15:00,50.7,46.9,30.00,South,179,9.0,14.0,87,0.00,CLR,BKN,0.00,0.0,WeatherDisplay:10.37,2013-09-24 06:15:00,
2013-09-24 01:20:00,50.5,47.1,30.00,South,177,6.0,13.0,88,0.00,CLR,BKN,0.00,0.0,WeatherDisplay:10.37,2013-09-24 06:20:00,
2013-09-24 01:25:00,50.4,47.0,30.00,South,174,7.0,12.0,88,0.00,CLR,BKN,0.00,0.0,WeatherDisplay:10.37,2013-09-24 06:25:00,
2013-09-24 01:30:00,50.2,46.8,30.00,South,176,7.0,12.0,88,0.00,CLR,BKN,0.00,0.0,WeatherDisplay:10.37,2013-09-24 06:30:00,
2013-09-24 01:35:00,50.2,46.8,30.00,South,174,8.1,8.1,88,0.00,CLR,BKN,0.00,0.0,WeatherDisplay:10.37,2013-09-24 06:35:00,
2013-09-24 01:40:00,50.1,46.7,30.01,South,169,8.0,12.0,88,0.00,CLR,BKN,0.00,0.0,WeatherDisplay:10.37,2013-09-24 06:40:00,
2013-09-24 01:45:00,49.9,46.8,30.01,SSE,160,8.1,8.1,89,0.00,CLR,BKN,0.00,0.0,WeatherDisplay:10.37,2013-09-24 06:45:00,
2013-09-24 01:50:00,49.9,46.8,30.01,SSW,195,10.4,10.4,89,0.00,CLR,BKN,0.00,0.0,WeatherDisplay:10.37,2013-09-24 06:50:00,
2013-09-24 01:55:00,49.8,46.7,30.01,South,187,10.4,10.4,89,0.00,CLR,BKN,0.00,0.0,WeatherDisplay:10.37,2013-09-24 06:55:00,
2013-09-24 02:00:00,49.6,46.5,30.01,SSE,165,10.4,10.4,89,0.00,CLR,BKN,0.00,0.0,WeatherDisplay:10.37,2013-09-24 07:00:00,
2013-09-24 02:06:00,49.6,46.5,30.01,SSE,152,11.5,11.5,89,0.00,CLR,BKN,0.00,0.0,WeatherDisplay:10.37,2013-09-24 07:06:00,
2013-09-24 02:11:00,49.5,46.7,30.00,SSE,165,11.5,11.5,90,0.00,CLR,BKN,0.00,0.0,WeatherDisplay:10.37,2013-09-24 07:11:00,
2013-09-24 02:16:00,49.4,46.6,30.01,SSE,165,11.5,11.5,90,0.00,CLR,BKN,0.00,0.0,WeatherDisplay:10.37,2013-09-24 07:16:00,
2013-09-24 02:21:00,49.4,46.6,30.01,South,179,11.5,11.5,90,0.00,CLR,BKN,0.00,0.0,WeatherDisplay:10.37,2013-09-24 07:21:00,
2013-09-24 02:26:00,49.2,46.4,30.00,South,181,10.0,10.0,90,0.00,CLR,BKN,0.00,0.0,WeatherDisplay:10.37,2013-09-24 07:26:00,
2013-09-24 02:31:00,49.2,46.7,30.01,South,177,9.2,9.2,91,0.00,CLR,BKN,0.00,0.0,WeatherDisplay:10.37,2013-09-24 07:31:00,
2013-09-24 02:36:00,49.1,46.6,30.01,South,172,9.2,9.2,91,0.00,CLR,BKN,0.00,0.0,WeatherDisplay:10.37,2013-09-24 07:36:00,
2013-09-24 02:42:00,49.1,46.6,30.00,South,170,9.2,9.2,91,0.00,CLR,BKN,0.00,0.0,WeatherDisplay:10.37,2013-09-24 07:42:00,
2013-09-24 02:47:00,48.9,46.4,30.01,South,171,11.5,11.5,91,0.00,CLR,BKN,0.00,0.0,WeatherDisplay:10.37,2013-09-24 07:47:00,
2013-09-24 02:52:00,48.8,46.3,30.00,SSE,166,9.2,9.2,91,0.00,CLR,BKN,0.00,0.0,WeatherDisplay:10.37,2013-09-24 07:52:00,
2013-09-24 02:57:00,48.8,46.3,30.00,SSE,163,11.5,11.5,91,0.00,CLR,BKN,0.00,0.0,WeatherDisplay:10.37,2013-09-24 07:57:00,
2013-09-24 03:02:00,48.6,46.1,30.00,South,173,9.2,9.2,91,0.00,CLR,BKN,0.00,0.0,WeatherDisplay:10.37,2013-09-24 08:02:00,
2013-09-24 03:07:00,48.6,46.1,30.01,South,179,6.9,6.9,91,0.00,CLR,BKN,0.00,0.0,WeatherDisplay:10.37,2013-09-24 08:07:00,
2013-09-24 03:12:00,48.5,46.3,30.01,South,170,8.1,8.1,92,0.00,CLR,BKN,0.00,0.0,WeatherDisplay:10.37,2013-09-24 08:12:00,
2013-09-24 03:17:00,48.5,46.3,30.01,South,177,10.4,10.4,92,0.00,CLR,BKN,0.00,0.0,WeatherDisplay:10.37,2013-09-24 08:17:00,
2013-09-24 03:23:00,48.3,46.1,30.01,South,176,7.0,7.0,92,0.00,CLR,BKN,0.00,0.0,WeatherDisplay:10.37,2013-09-24 08:23:00,
2013-09-24 03:28:00,48.3,46.1,30.01,SSW,194,8.1,8.1,92,0.00,CLR,BKN,0.00,0.0,WeatherDisplay:10.37,2013-09-24 08:28:00,
2013-09-24 03:33:00,48.2,46.0,30.02,South,179,8.1,8.1,92,0.00,CLR,BKN,0.00,0.0,WeatherDisplay:10.37,2013-09-24 08:33:00,
2013-09-24 03:38:00,48.0,45.8,30.02,South,182,5.8,5.8,92,0.00,CLR,BKN,0.00,0.0,WeatherDisplay:10.37,2013-09-24 08:38:00,
2013-09-24 03:43:00,48.0,45.8,30.02,South,177,8.1,8.1,92,0.00,CLR,BKN,0.00,0.0,WeatherDisplay:10.37,2013-09-24 08:43:00,
2013-09-24 03:48:00,47.9,45.7,30.02,South,186,8.1,8.1,92,0.00,CLR,BKN,0.00,0.0,WeatherDisplay:10.37,2013-09-24 08:48:00,
2013-09-24 03:53:00,47.9,45.4,30.02,South,183,6.9,6.9,91,0.00,CLR,BKN,0.00,0.0,WeatherDisplay:10.37,2013-09-24 08:53:00,
2013-09-24 03:59:00,47.7,45.5,30.02,South,175,8.1,8.1,92,0.00,CLR,BKN,0.00,0.0,WeatherDisplay:10.37,2013-09-24 08:59:00,
2013-09-24 04:04:00,47.6,45.4,30.02,South,175,10.4,10.4,92,0.00,CLR,BKN,0.00,0.0,WeatherDisplay:10.37,2013-09-24 09:04:00,
2013-09-24 04:09:00,47.4,45.2,30.02,South,174,10.4,10.4,92,0.00,CLR,BKN,0.00,0.0,WeatherDisplay:10.37,2013-09-24 09:09:00,
2013-09-24 04:14:00,47.3,45.1,30.02,SSE,165,8.1,8.1,92,0.00,CLR,BKN,0.00,0.0,WeatherDisplay:10.37,2013-09-24 09:14:00,
2013-09-24 04:19:00,47.3,45.1,30.02,South,171,8.1,8.1,92,0.00,CLR,BKN,0.00,0.0,WeatherDisplay:10.37,2013-09-24 09:19:00,
2013-09-24 04:24:00,47.1,44.9,30.02,South,169,7.0,7.0,92,0.00,CLR,BKN,0.00,0.0,WeatherDisplay:10.37,2013-09-24 09:24:00,
2013-09-24 04:29:00,47.0,44.8,30.02,SSE,166,9.2,9.2,92,0.00,CLR,BKN,0.00,0.0,WeatherDisplay:10.37,2013-09-24 09:29:00,
2013-09-24 04:34:00,46.8,44.6,30.02,SSE,163,6.9,6.9,92,0.00,CLR,BKN,0.00,0.0,WeatherDisplay:10.37,2013-09-24 09:34:00,
2013-09-24 04:40:00,46.8,44.9,30.02,SSE,164,6.0,9.0,93,0.00,CLR,BKN,0.00,0.0,WeatherDisplay:10.37,2013-09-24 09:40:00,
2013-09-24 04:45:00,46.7,44.8,30.02,SSE,158,9.2,9.2,93,0.00,CLR,BKN,0.00,0.0,WeatherDisplay:10.37,2013-09-24 09:45:00,
2013-09-24 04:50:00,46.5,44.6,30.02,SSE,158,6.9,6.9,93,0.00,CLR,BKN,0.00,0.0,WeatherDisplay:10.37,2013-09-24 09:50:00,
2013-09-24 04:55:00,46.4,44.5,30.02,SSE,158,6.9,6.9,93,0.00,CLR,BKN,0.00,0.0,WeatherDisplay:10.37,2013-09-24 09:55:00,
2013-09-24 05:00:00,46.2,44.3,30.02,SSE,157,5.8,5.8,93,0.00,CLR,BKN,0.00,0.0,WeatherDisplay:10.37,2013-09-24 10:00:00,
2013-09-24 05:05:00,46.2,44.3,30.02,SSE,156,4.0,4.0,93,0.00,CLR,BKN,0.00,0.0,WeatherDisplay:10.37,2013-09-24 10:05:00,
2013-09-24 05:10:00,46.1,44.2,30.02,SE,134,5.8,5.8,93,0.00,CLR,BKN,0.00,0.0,WeatherDisplay:10.37,2013-09-24 10:10:00,
2013-09-24 05:16:00,46.0,44.1,30.03,SE,136,6.9,6.9,93,0.00,CLR,BKN,0.00,0.0,WeatherDisplay:10.37,2013-09-24 10:16:00,
2013-09-24 05:21:00,45.8,44.2,30.02,SE,136,4.6,4.6,94,0.00,CLR,BKN,0.00,0.0,WeatherDisplay:10.37,2013-09-24 10:21:00,
2013-09-24 05:26:00,45.7,44.1,30.02,SE,136,6.9,6.9,94,0.00,CLR,BKN,0.00,0.0,WeatherDisplay:10.37,2013-09-24 10:26:00,
2013-09-24 05:31:00,45.5,43.9,30.02,SE,135,6.9,6.9,94,0.00,CLR,BKN,0.00,0.0,WeatherDisplay:10.37,2013-09-24 10:31:00,
2013-09-24 05:36:00,45.5,43.9,30.02,SE,135,4.6,4.6,94,0.00,CLR,BKN,0.00,0.0,WeatherDisplay:10.37,2013-09-24 10:36:00,
2013-09-24 05:41:00,45.4,43.8,30.02,SE,134,3.5,3.5,94,0.00,CLR,BKN,0.00,0.0,WeatherDisplay:10.37,2013-09-24 10:41:00,
2013-09-24 05:46:00,45.2,43.6,30.02,SE,131,4.0,4.0,94,0.00,CLR,BKN,0.00,0.0,WeatherDisplay:10.37,2013-09-24 10:46:00,
2013-09-24 05:51:00,45.2,43.6,30.02,SE,129,5.8,5.8,94,0.00,CLR,BKN,0.00,0.0,WeatherDisplay:10.37,2013-09-24 10:51:00,
2013-09-24 05:57:00,45.1,43.5,30.02,SE,129,6.9,6.9,94,0.00,CLR,BKN,0.00,0.0,WeatherDisplay:10.37,2013-09-24 10:57:00,
2013-09-24 06:02:00,45.1,43.8,30.02,SE,129,6.9,6.9,95,0.00,CLR,BKN,0.00,0.0,WeatherDisplay:10.37,2013-09-24 11:02:00,
2013-09-24 06:07:00,44.9,43.6,30.02,SE,129,6.9,6.9,95,0.00,CLR,BKN,0.00,0.0,WeatherDisplay:10.37,2013-09-24 11:07:00,
2013-09-24 06:12:00,44.9,43.6,30.02,SE,129,5.8,5.8,95,0.00,CLR,BKN,0.00,0.0,WeatherDisplay:10.37,2013-09-24 11:12:00,
2013-09-24 06:17:00,44.8,43.5,30.02,SE,131,6.9,6.9,95,0.00,CLR,BKN,0.00,0.0,WeatherDisplay:10.37,2013-09-24 11:17:00,
2013-09-24 06:22:00,44.8,43.5,30.02,SE,126,5.8,5.8,95,0.00,CLR,BKN,0.00,0.0,WeatherDisplay:10.37,2013-09-24 11:22:00,
2013-09-24 06:27:00,44.6,43.3,30.02,SE,134,8.1,8.1,95,0.00,CLR,BKN,0.00,0.0,WeatherDisplay:10.37,2013-09-24 11:27:00,
2013-09-24 06:33:00,44.6,43.3,30.03,SE,132,6.9,6.9,95,0.00,CLR,BKN,0.00,0.0,WeatherDisplay:10.37,2013-09-24 11:33:00,
2013-09-24 06:38:00,44.5,43.2,30.03,SE,132,6.9,6.9,95,0.00,CLR,BKN,0.00,0.0,WeatherDisplay:10.37,2013-09-24 11:38:00,
2013-09-24 06:43:00,44.5,43.2,30.03,SE,135,4.6,4.6,95,0.00,CLR,BKN,0.00,0.0,WeatherDisplay:10.37,2013-09-24 11:43:00,
2013-09-24 06:48:00,44.3,43.0,30.03,SE,133,5.8,5.8,95,0.00,CLR,BKN,0.00,0.0,WeatherDisplay:10.37,2013-09-24 11:48:00,
2013-09-24 06:53:00,44.3,43.0,30.03,SE,133,5.8,5.8,95,0.00,CLR,BKN,0.00,0.0,WeatherDisplay:10.37,2013-09-24 11:53:00,
2013-09-24 06:58:00,44.3,43.0,30.03,SE,134,7.0,7.0,95,0.00,CLR,BKN,0.00,0.0,WeatherDisplay:10.37,2013-09-24 11:58:00,
2013-09-24 07:03:00,44.2,42.9,30.03,SE,134,7.0,7.0,95,0.00,CLR,BKN,0.00,0.0,WeatherDisplay:10.37,2013-09-24 12:03:00,
2013-09-24 07:08:00,44.2,43.1,30.03,SE,139,6.9,6.9,96,0.00,CLR,BKN,0.00,0.0,WeatherDisplay:10.37,2013-09-24 12:08:00,
2013-09-24 07:14:00,44.2,43.1,30.03,SE,138,6.9,6.9,96,0.00,CLR,BKN,0.00,0.0,WeatherDisplay:10.37,2013-09-24 12:14:00,
2013-09-24 07:19:00,44.2,43.1,30.03,SE,138,6.0,6.0,96,0.00,CLR,BKN,0.00,0.0,WeatherDisplay:10.37,2013-09-24 12:19:00,
2013-09-24 07:24:00,44.2,43.1,30.03,SE,140,9.2,9.2,96,0.00,CLR,BKN,0.00,0.0,WeatherDisplay:10.37,2013-09-24 12:24:00,
2013-09-24 07:29:00,44.2,43.1,30.03,SE,140,8.1,8.1,96,0.00,CLR,BKN,0.00,0.0,WeatherDisplay:10.37,2013-09-24 12:29:00,
2013-09-24 07:34:00,44.3,43.2,30.03,SE,138,8.1,8.1,96,0.00,CLR,BKN,0.00,0.0,WeatherDisplay:10.37,2013-09-24 12:34:00,
2013-09-24 07:39:00,44.3,43.2,30.03,SE,140,6.0,6.0,96,0.00,CLR,BKN,0.00,0.0,WeatherDisplay:10.37,2013-09-24 12:39:00,
2013-09-24 07:44:00,44.5,43.4,30.03,SE,141,8.1,8.1,96,0.00,CLR,BKN,0.00,0.0,WeatherDisplay:10.37,2013-09-24 12:44:00,
2013-09-24 07:50:00,44.6,43.5,30.03,SE,135,4.6,4.6,96,0.00,,BKN,0.00,0.0,WeatherDisplay:10.37,2013-09-24 12:50:00,
2013-09-24 07:55:00,44.8,44.0,30.03,SE,136,5.0,9.0,97,0.00,,BKN,0.00,0.0,WeatherDisplay:10.37,2013-09-24 12:55:00,
2013-09-24 08:00:00,45.1,44.3,30.03,SE,136,8.1,8.1,97,0.00,,BKN,0.00,0.0,WeatherDisplay:10.37,2013-09-24 13:00:00,
2013-09-24 08:05:00,45.2,44.4,30.03,SE,135,5.0,7.0,97,0.00,OVC,BKN,0.00,0.0,WeatherDisplay:10.37,2013-09-24 13:05:00,
2013-09-24 08:10:00,45.5,44.7,30.03,SE,144,7.0,12.0,97,0.00,OVC,BKN,0.00,0.0,WeatherDisplay:10.37,2013-09-24 13:10:00,
2013-09-24 08:15:00,45.7,45.2,30.03,SSE,147,10.4,10.4,98,0.00,OVC,BKN,0.00,0.0,WeatherDisplay:10.37,2013-09-24 13:15:00,
2013-09-24 08:20:00,46.1,45.6,30.03,SSE,154,9.2,9.2,98,0.00,OVC,BKN,0.00,0.0,WeatherDisplay:10.37,2013-09-24 13:20:00,
2013-09-24 08:25:00,46.4,45.9,30.03,SSE,163,4.6,4.6,98,0.00,OVC,BKN,0.00,0.0,WeatherDisplay:10.37,2013-09-24 13:25:00,
2013-09-24 08:30:00,46.7,46.4,30.03,SSE,160,10.0,10.0,99,0.00,OVC,BKN,0.00,0.0,WeatherDisplay:10.37,2013-09-24 13:30:00,
2013-09-24 08:35:00,47.0,46.7,30.03,SSE,167,9.2,9.2,99,0.00,OVC,BKN,0.00,0.0,WeatherDisplay:10.37,2013-09-24 13:35:00,
2013-09-24 08:40:00,47.3,47.0,30.03,SSE,167,11.5,11.5,99,0.00,OVC,BKN,0.00,0.0,WeatherDisplay:10.37,2013-09-24 13:40:00,
2013-09-24 08:46:00,47.6,47.3,30.03,SSE,160,6.0,6.0,99,0.00,OVC,BKN,0.00,0.0,WeatherDisplay:10.37,2013-09-24 13:46:00,
2013-09-24 08:51:00,48.0,47.7,30.03,SSE,152,8.1,8.1,99,0.00,OVC,BKN,0.00,0.0,WeatherDisplay:10.37,2013-09-24 13:51:00,
2013-09-24 08:56:00,48.3,48.0,30.03,SE,142,10.4,10.4,99,0.00,OVC,BKN,0.00,0.0,WeatherDisplay:10.37,2013-09-24 13:56:00,
2013-09-24 09:01:00,48.8,48.5,30.02,SE,144,8.0,8.0,99,0.00,OVC,BKN,0.00,0.0,WeatherDisplay:10.37,2013-09-24 14:01:00,
2013-09-24 09:06:00,49.2,48.7,30.02,SSE,148,9.2,9.2,98,0.00,OVC,BKN,0.00,0.0,WeatherDisplay:10.37,2013-09-24 14:06:00,
2013-09-24 09:11:00,49.6,49.1,30.02,SSE,147,11.5,11.5,98,0.00,OVC,BKN,0.00,0.0,WeatherDisplay:10.37,2013-09-24 14:11:00,
2013-09-24 09:16:00,50.4,49.3,30.03,SE,146,10.0,10.0,96,0.00,OVC,BKN,0.00,0.0,WeatherDisplay:10.37,2013-09-24 14:16:00,
2013-09-24 09:21:00,51.0,49.0,30.03,SE,136,11.5,11.5,93,0.00,OVC,BKN,0.00,0.0,WeatherDisplay:10.37,2013-09-24 14:21:00,
2013-09-24 09:27:00,51.6,49.4,30.02,SSE,164,11.5,11.5,92,0.00,OVC,BKN,0.00,0.0,WeatherDisplay:10.37,2013-09-24 14:27:00,
2013-09-24 09:32:00,52.3,48.9,30.02,SSE,148,5.0,5.0,88,0.00,OVC,BKN,0.00,0.0,WeatherDisplay:10.37,2013-09-24 14:32:00,
2013-09-24 09:37:00,52.9,49.1,30.02,SSE,165,11.5,11.5,87,0.00,OVC,BKN,0.00,0.0,WeatherDisplay:10.37,2013-09-24 14:37:00,
2013-09-24 09:42:00,53.6,48.9,30.02,South,169,6.9,6.9,84,0.00,OVC,BKN,0.00,0.0,WeatherDisplay:10.37,2013-09-24 14:42:00,
2013-09-24 09:47:00,54.4,49.0,30.02,SSE,165,10.4,10.4,82,0.00,OVC,BKN,0.00,0.0,WeatherDisplay:10.37,2013-09-24 14:47:00,
2013-09-24 09:52:00,55.3,48.9,30.02,SSE,158,11.5,11.5,79,0.00,OVC,BKN,0.00,0.0,WeatherDisplay:10.37,2013-09-24 14:52:00,
2013-09-24 09:57:00,55.9,48.8,30.02,SE,136,13.8,13.8,77,0.00,OVC,BKN,0.00,0.0,WeatherDisplay:10.37,2013-09-24 14:57:00,
2013-09-24 10:02:00,56.6,49.8,30.02,SSE,156,6.9,6.9,78,0.00,OVC,BKN,0.00,0.0,WeatherDisplay:10.37,2013-09-24 15:02:00,
2013-09-24 10:08:00,57.0,50.5,30.02,South,179,11.5,11.5,79,0.00,OVC,BKN,0.00,0.0,WeatherDisplay:10.37,2013-09-24 15:08:00,
2013-09-24 10:13:00,57.6,49.7,30.02,SSE,157,8.1,8.1,75,0.00,OVC,BKN,0.00,0.0,WeatherDisplay:10.37,2013-09-24 15:13:00,
2013-09-24 10:18:00,58.3,50.4,30.02,SSE,168,6.9,6.9,75,0.00,OVC,BKN,0.00,0.0,WeatherDisplay:10.37,2013-09-24 15:18:00,
2013-09-24 10:23:00,58.7,50.4,30.02,SW,223,5.0,5.0,74,0.00,OVC,BKN,0.00,0.0,WeatherDisplay:10.37,2013-09-24 15:23:00,
2013-09-24 10:28:00,59.5,49.7,30.02,SSE,151,11.5,11.5,70,0.00,OVC,BKN,0.00,0.0,WeatherDisplay:10.37,2013-09-24 15:28:00,
2013-09-24 10:33:00,60.4,51.0,30.02,South,172,6.9,6.9,71,0.00,OVC,BKN,0.00,0.0,WeatherDisplay:10.37,2013-09-24 15:33:00,
2013-09-24 10:38:00,60.1,52.1,30.02,SSE,164,9.2,9.2,75,0.00,OVC,BKN,0.00,0.0,WeatherDisplay:10.37,2013-09-24 15:38:00,
2013-09-24 10:44:00,59.9,50.1,30.02,SSW,198,9.2,9.2,70,0.00,OVC,BKN,0.00,0.0,WeatherDisplay:10.37,2013-09-24 15:44:00,
2013-09-24 10:49:00,60.2,50.0,30.02,SSE,167,8.1,8.1,69,0.00,OVC,BKN,0.00,0.0,WeatherDisplay:10.37,2013-09-24 15:49:00,
2013-09-24 10:54:00,61.0,51.1,30.02,South,177,5.0,5.0,70,0.00,OVC,BKN,0.00,0.0,WeatherDisplay:10.37,2013-09-24 15:54:00,
2013-09-24 10:59:00,61.2,52.1,30.02,SSE,166,8.1,8.1,72,0.00,OVC,BKN,0.00,0.0,WeatherDisplay:10.37,2013-09-24 15:59:00,
2013-09-24 11:04:00,61.5,50.8,30.02,SSE,163,8.1,8.1,68,0.00,OVC,BKN,0.00,0.0,WeatherDisplay:10.37,2013-09-24 16:04:00,
2013-09-24 11:09:00,62.0,50.1,30.02,SSE,163,6.9,6.9,65,0.00,OVC,BKN,0.00,0.0,WeatherDisplay:10.37,2013-09-24 16:09:00,
2013-09-24 11:14:00,62.6,51.9,30.02,South,182,5.8,5.8,68,0.00,OVC,BKN,0.00,0.0,WeatherDisplay:10.37,2013-09-24 16:14:00,
2013-09-24 11:19:00,62.9,50.5,30.02,SSW,197,8.1,8.1,64,0.00,OVC,BKN,0.00,0.0,WeatherDisplay:10.37,2013-09-24 16:19:00,
2013-09-24 11:25:00,62.8,51.2,30.01,South,184,1.0,9.0,66,0.00,OVC,BKN,0.00,0.0,WeatherDisplay:10.37,2013-09-24 16:25:00,
2013-09-24 11:30:00,62.9,52.2,30.02,SSW,194,4.6,4.6,68,0.00,OVC,BKN,0.00,0.0,WeatherDisplay:10.37,2013-09-24 16:30:00,
2013-09-24 11:35:00,63.4,50.6,30.02,SSE,166,5.0,10.0,63,0.00,OVC,BKN,0.00,0.0,WeatherDisplay:10.37,2013-09-24 16:35:00,
2013-09-24 11:40:00,64.0,51.6,30.01,SSE,150,1.0,8.0,64,0.00,OVC,BKN,0.00,0.0,WeatherDisplay:10.37,2013-09-24 16:40:00,
2013-09-24 11:45:00,63.8,51.4,30.01,South,169,7.0,10.0,64,0.00,OVC,BKN,0.00,0.0,WeatherDisplay:10.37,2013-09-24 16:45:00,
2013-09-24 11:50:00,64.5,51.6,30.01,SSE,168,8.1,8.1,63,0.00,OVC,BKN,0.00,0.0,WeatherDisplay:10.37,2013-09-24 16:50:00,
2013-09-24 11:55:00,65.5,51.7,30.01,South,169,6.9,6.9,61,0.00,OVC,BKN,0.00,0.0,WeatherDisplay:10.37,2013-09-24 16:55:00,
2013-09-24 12:00:00,65.8,50.6,30.01,SSW,210,10.4,10.4,58,0.00,OVC,BKN,0.00,0.0,WeatherDisplay:10.37,2013-09-24 17:00:00,
2013-09-24 12:05:00,65.6,52.7,30.01,SSW,204,6.9,6.9,63,0.00,OVC,BKN,0.00,0.0,WeatherDisplay:10.37,2013-09-24 17:05:00,
2013-09-24 12:10:00,66.1,50.9,30.01,SSE,151,8.1,8.1,58,0.00,OVC,BKN,0.00,0.0,WeatherDisplay:10.37,2013-09-24 17:10:00,
2013-09-24 12:15:00,66.4,51.6,30.01,South,184,5.8,5.8,59,0.00,OVC,BKN,0.00,0.0,WeatherDisplay:10.37,2013-09-24 17:15:00,
2013-09-24 12:20:00,66.4,50.7,30.01,SE,142,10.0,10.0,57,0.00,OVC,BKN,0.00,0.0,WeatherDisplay:10.37,2013-09-24 17:20:00,
2013-09-24 12:26:00,66.6,54.0,30.00,SSE,147,10.0,10.0,64,0.00,OVC,BKN,0.00,0.0,WeatherDisplay:10.37,2013-09-24 17:26:00,
2013-09-24 12:31:00,66.9,51.2,30.00,SSE,155,10.4,10.4,57,0.00,OVC,BKN,0.00,0.0,WeatherDisplay:10.37,2013-09-24 17:31:00,
2013-09-24 12:36:00,67.1,50.9,30.00,South,184,3.5,3.5,56,0.00,OVC,BKN,0.00,0.0,WeatherDisplay:10.37,2013-09-24 17:36:00,
2013-09-24 12:41:00,67.1,52.3,30.00,South,177,6.9,6.9,59,0.00,OVC,BKN,0.00,0.0,WeatherDisplay:10.37,2013-09-24 17:41:00,
2013-09-24 12:46:00,67.3,50.6,30.00,SSE,164,6.0,6.0,55,0.00,OVC,BKN,0.00,0.0,WeatherDisplay:10.37,2013-09-24 17:46:00,
2013-09-24 12:51:00,67.4,51.6,30.00,WSW,241,9.2,9.2,57,0.00,OVC,BKN,0.00,0.0,WeatherDisplay:10.37,2013-09-24 17:51:00,
2013-09-24 12:57:00,66.6,51.4,30.00,SSW,208,9.2,9.2,58,0.00,OVC,BKN,0.00,0.0,WeatherDisplay:10.37,2013-09-24 17:57:00,
2013-09-24 13:02:00,66.9,52.6,29.99,South,179,9.2,9.2,60,0.00,OVC,BKN,0.00,0.0,WeatherDisplay:10.37,2013-09-24 18:02:00,
2013-09-24 13:07:00,67.4,49.7,29.99,SSE,166,11.5,11.5,53,0.00,OVC,BKN,0.00,0.0,WeatherDisplay:10.37,2013-09-24 18:07:00,
2013-09-24 13:12:00,67.9,48.6,29.99,SE,140,5.8,5.8,50,0.00,OVC,BKN,0.00,0.0,WeatherDisplay:10.37,2013-09-24 18:12:00,
2013-09-24 13:17:00,68.1,51.3,29.99,SSW,206,6.9,6.9,55,0.00,OVC,BKN,0.00,0.0,WeatherDisplay:10.37,2013-09-24 18:17:00,
2013-09-24 13:22:00,68.3,50.0,29.99,South,171,11.5,11.5,52,0.00,OVC,BKN,0.00,0.0,WeatherDisplay:10.37,2013-09-24 18:22:00,
2013-09-24 13:27:00,68.1,51.3,29.99,SSW,212,9.2,9.2,55,0.00,OVC,BKN,0.00,0.0,WeatherDisplay:10.37,2013-09-24 18:27:00,
2013-09-24 13:32:00,67.3,49.6,29.98,SW,229,11.0,11.0,53,0.00,OVC,BKN,0.00,0.0,WeatherDisplay:10.37,2013-09-24 18:32:00,
2013-09-24 13:38:00,67.8,51.0,29.99,SW,215,11.5,11.5,55,0.00,OVC,BKN,0.00,0.0,WeatherDisplay:10.37,2013-09-24 18:38:00,
2013-09-24 13:43:00,67.8,50.0,29.98,WSW,247,6.9,6.9,53,0.00,OVC,BKN,0.00,0.0,WeatherDisplay:10.37,2013-09-24 18:43:00,
2013-09-24 13:48:00,67.4,50.7,29.98,SSW,202,12.0,12.0,55,0.00,OVC,BKN,0.00,0.0,WeatherDisplay:10.37,2013-09-24 18:48:00,
2013-09-24 13:53:00,68.3,49.5,29.98,SSE,168,6.9,6.9,51,0.00,OVC,BKN,0.00,0.0,WeatherDisplay:10.37,2013-09-24 18:53:00,
2013-09-24 13:58:00,68.4,51.1,29.98,West,266,6.0,6.0,54,0.00,OVC,BKN,0.00,0.0,WeatherDisplay:10.37,2013-09-24 18:58:00,
2013-09-24 14:03:00,68.6,48.7,29.98,South,173,5.8,5.8,49,0.00,OVC,BKN,0.00,0.0,WeatherDisplay:10.37,2013-09-24 19:03:00,
2013-09-24 14:08:00,68.9,48.9,29.98,SSE,161,12.7,12.7,49,0.00,OVC,BKN,0.00,0.0,WeatherDisplay:10.37,2013-09-24 19:08:00,
2013-09-24 14:14:00,69.1,48.0,29.98,South,169,8.1,8.1,47,0.00,OVC,BKN,0.00,0.0,WeatherDisplay:10.37,2013-09-24 19:14:00,
2013-09-24 14:19:00,69.1,48.6,29.97,SSE,154,15.0,15.0,48,0.00,OVC,BKN,0.00,0.0,WeatherDisplay:10.37,2013-09-24 19:19:00,
2013-09-24 14:24:00,69.1,50.2,29.97,South,171,5.0,5.0,51,0.00,OVC,BKN,0.00,0.0,WeatherDisplay:10.37,2013-09-24 19:24:00,
2013-09-24 14:29:00,69.3,48.8,29.97,SSE,165,11.5,11.5,48,0.00,OVC,BKN,0.00,0.0,WeatherDisplay:10.37,2013-09-24 19:29:00,
2013-09-24 14:34:00,69.3,48.2,29.97,South,183,8.1,8.1,47,0.00,OVC,BKN,0.00,0.0,WeatherDisplay:10.37,2013-09-24 19:34:00,
2013-09-24 14:39:00,68.9,48.4,29.97,SSW,198,6.9,6.9,48,0.00,OVC,BKN,0.00,0.0,WeatherDisplay:10.37,2013-09-24 19:39:00,
2013-09-24 14:44:00,68.9,49.5,29.97,SE,141,6.9,6.9,50,0.00,OVC,BKN,0.00,0.0,WeatherDisplay:10.37,2013-09-24 19:44:00,
2013-09-24 14:49:00,68.8,51.5,29.97,SSW,198,9.2,9.2,54,0.00,OVC,BKN,0.00,0.0,WeatherDisplay:10.37,2013-09-24 19:49:00,
2013-09-24 14:55:00,68.8,48.3,29.97,South,183,0.0,9.0,48,0.00,OVC,BKN,0.00,0.0,WeatherDisplay:10.37,2013-09-24 19:55:00,
2013-09-24 15:00:00,68.9,48.9,29.96,South,190,3.0,14.0,49,0.00,OVC,BKN,0.00,0.0,WeatherDisplay:10.37,2013-09-24 20:00:00,
2013-09-24 15:05:00,68.6,50.8,29.96,SSW,192,9.0,12.0,53,0.00,OVC,BKN,0.00,0.0,WeatherDisplay:10.37,2013-09-24 20:05:00,
2013-09-24 15:10:00,68.8,48.3,29.96,South,184,8.0,13.0,48,0.00,OVC,BKN,0.00,0.0,WeatherDisplay:10.37,2013-09-24 20:10:00,
2013-09-24 15:15:00,68.8,48.9,29.96,South,182,6.0,9.0,49,0.00,OVC,BKN,0.00,0.0,WeatherDisplay:10.37,2013-09-24 20:15:00,
2013-09-24 15:20:00,68.8,51.5,29.96,South,179,1.0,8.0,54,0.00,OVC,BKN,0.00,0.0,WeatherDisplay:10.37,2013-09-24 20:20:00,
2013-09-24 15:25:00,68.3,52.5,29.96,South,180,6.9,6.9,57,0.00,OVC,BKN,0.00,0.0,WeatherDisplay:10.37,2013-09-24 20:25:00,
2013-09-24 15:30:00,68.4,50.6,29.95,SW,216,11.5,11.5,53,0.00,OVC,BKN,0.00,0.0,WeatherDisplay:10.37,2013-09-24 20:30:00,
2013-09-24 15:35:00,68.6,50.8,29.95,SSW,198,9.2,9.2,53,0.00,OVC,BKN,0.00,0.0,WeatherDisplay:10.37,2013-09-24 20:35:00,
2013-09-24 15:40:00,68.9,50.0,29.95,SSE,151,11.5,11.5,51,0.00,OVC,BKN,0.00,0.0,WeatherDisplay:10.37,2013-09-24 20:40:00,
2013-09-24 15:45:00,69.3,48.8,29.95,SSE,148,12.7,12.7,48,0.00,OVC,BKN,0.00,0.0,WeatherDisplay:10.37,2013-09-24 20:45:00,
2013-09-24 15:50:00,69.6,50.7,29.95,SSE,159,5.8,5.8,51,0.00,OVC,BKN,0.00,0.0,WeatherDisplay:10.37,2013-09-24 20:50:00,
2013-09-24 15:56:00,69.1,49.1,29.95,South,191,6.9,6.9,49,0.00,OVC,BKN,0.00,0.0,WeatherDisplay:10.37,2013-09-24 20:56:00,
2013-09-24 16:01:00,69.3,49.3,29.95,South,170,5.8,5.8,49,0.00,OVC,BKN,0.00,0.0,WeatherDisplay:10.37,2013-09-24 21:01:00,
2013-09-24 16:06:00,69.3,50.9,29.95,South,175,12.7,12.7,52,0.00,OVC,BKN,0.00,0.0,WeatherDisplay:10.37,2013-09-24 21:06:00,
2013-09-24 16:11:00,68.9,48.9,29.95,SSW,197,11.5,11.5,49,0.00,OVC,BKN,0.00,0.0,WeatherDisplay:10.37,2013-09-24 21:11:00,
2013-09-24 16:16:00,69.4,49.9,29.95,SE,135,4.6,4.6,50,0.00,OVC,BKN,0.00,0.0,WeatherDisplay:10.37,2013-09-24 21:16:00,
2013-09-24 16:21:00,69.3,48.8,29.94,SSE,152,11.5,11.5,48,0.00,OVC,BKN,0.00,0.0,WeatherDisplay:10.37,2013-09-24 21:21:00,
2013-09-24 16:26:00,68.9,50.5,29.94,SSW,200,10.4,10.4,52,0.00,OVC,BKN,0.00,0.0,WeatherDisplay:10.37,2013-09-24 21:26:00,
2013-09-24 16:31:00,68.4,50.6,29.95,SSW,192,7.0,7.0,53,0.00,OVC,BKN,0.00,0.0,WeatherDisplay:10.37,2013-09-24 21:31:00,
2013-09-24 16:37:00,68.6,49.7,29.94,SSE,154,8.1,8.1,51,0.00,OVC,BKN,0.00,0.0,WeatherDisplay:10.37,2013-09-24 21:37:00,
2013-09-24 16:42:00,68.3,50.0,29.94,SSE,161,9.0,9.0,52,0.00,OVC,BKN,0.00,0.0,WeatherDisplay:10.37,2013-09-24 21:42:00,
2013-09-24 16:47:00,68.3,48.9,29.94,South,171,9.2,9.2,50,0.00,OVC,BKN,0.00,0.0,WeatherDisplay:10.37,2013-09-24 21:47:00,
2013-09-24 16:52:00,68.4,47.9,29.94,South,176,10.4,10.4,48,0.00,OVC,BKN,0.00,0.0,WeatherDisplay:10.37,2013-09-24 21:52:00,
2013-09-24 16:57:00,68.1,49.3,29.95,SSE,165,8.0,8.0,51,0.00,OVC,BKN,0.00,0.0,WeatherDisplay:10.37,2013-09-24 21:57:00,
2013-09-24 17:02:00,67.9,50.6,29.94,SSE,153,11.5,11.5,54,0.00,,BKN,0.00,0.0,WeatherDisplay:10.37,2013-09-24 22:02:00,
2013-09-24 17:07:00,67.8,49.0,29.94,South,169,8.1,8.1,51,0.00,,BKN,0.00,0.0,WeatherDisplay:10.37,2013-09-24 22:07:00,
2013-09-24 17:13:00,67.6,49.3,29.95,SSW,213,11.5,11.5,52,0.00,,BKN,0.00,0.0,WeatherDisplay:10.37,2013-09-24 22:13:00,
2013-09-24 17:18:00,67.1,49.4,29.95,SSW,213,5.0,5.0,53,0.00,,BKN,0.00,0.0,WeatherDisplay:10.37,2013-09-24 22:18:00,
2013-09-24 17:23:00,66.9,48.7,29.94,South,173,9.2,9.2,52,0.00,,BKN,0.00,0.0,WeatherDisplay:10.37,2013-09-24 22:23:00,
2013-09-24 17:28:00,66.8,49.6,29.94,SSE,165,10.4,10.4,54,0.00,,BKN,0.00,0.0,WeatherDisplay:10.37,2013-09-24 22:28:00,
2013-09-24 17:33:00,66.4,49.7,29.94,South,179,8.1,8.1,55,0.00,,BKN,0.00,0.0,WeatherDisplay:10.37,2013-09-24 22:33:00,
2013-09-24 17:38:00,66.4,49.2,29.94,South,171,5.8,5.8,54,0.00,,BKN,0.00,0.0,WeatherDisplay:10.37,2013-09-24 22:38:00,
2013-09-24 17:44:00,66.1,49.9,29.94,South,173,4.6,4.6,56,0.00,,BKN,0.00,0.0,WeatherDisplay:10.37,2013-09-24 22:44:00,
2013-09-24 17:49:00,65.8,50.6,29.94,South,170,6.9,6.9,58,0.00,,BKN,0.00,0.0,WeatherDisplay:10.37,2013-09-24 22:49:00,
2013-09-24 17:54:00,65.3,50.1,29.94,South,173,5.8,5.8,58,0.00,,BKN,0.00,0.0,WeatherDisplay:10.37,2013-09-24 22:54:00,
2013-09-24 17:59:00,65.0,49.9,29.94,South,174,3.5,3.5,58,0.00,,BKN,0.00,0.0,WeatherDisplay:10.37,2013-09-24 22:59:00,
2013-09-24 18:04:00,64.2,50.0,29.94,South,178,5.8,5.8,60,0.00,,BKN,0.00,0.0,WeatherDisplay:10.37,2013-09-24 23:04:00,
2013-09-24 18:09:00,63.9,51.1,29.94,South,178,3.5,3.5,63,0.00,,BKN,0.00,0.0,WeatherDisplay:10.37,2013-09-24 23:09:00,
2013-09-24 18:15:00,63.5,53.1,29.94,South,180,2.0,5.0,69,0.00,,BKN,0.00,0.0,WeatherDisplay:10.37,2013-09-24 23:15:00,
2013-09-24 18:20:00,62.4,53.2,29.94,South,185,2.0,4.0,72,0.00,,BKN,0.00,0.0,WeatherDisplay:10.37,2013-09-24 23:20:00,
2013-09-24 18:25:00,61.3,52.6,29.94,South,186,3.5,3.5,73,0.00,,BKN,0.00,0.0,WeatherDisplay:10.37,2013-09-24 23:25:00,
2013-09-24 18:30:00,60.7,52.0,29.94,South,186,3.5,3.5,73,0.00,,BKN,0.00,0.0,WeatherDisplay:10.37,2013-09-24 23:30:00,
2013-09-24 18:35:00,59.8,52.2,29.94,South,186,2.3,2.3,76,0.00,,BKN,0.00,0.0,WeatherDisplay:10.37,2013-09-24 23:35:00,
2013-09-24 18:40:00,59.3,51.7,29.94,South,186,3.5,3.5,76,0.00,,BKN,0.00,0.0,WeatherDisplay:10.37,2013-09-24 23:40:00,
2013-09-24 18:45:00,59.0,51.8,29.95,South,186,0.0,0.0,77,0.00,,BKN,0.00,0.0,WeatherDisplay:10.37,2013-09-24 23:45:00,
2013-09-24 18:50:00,58.9,52.4,29.95,South,186,0.0,0.0,79,0.00,,BKN,0.00,0.0,WeatherDisplay:10.37,2013-09-24 23:50:00,
2013-09-24 18:55:00,58.6,52.4,29.95,South,186,0.0,0.1,80,0.00,,BKN,0.00,0.0,WeatherDisplay:10.37,2013-09-24 23:55:00,
2013-09-24 19:01:00,58.4,52.6,29.95,South,186,1.2,0.0,81,0.00,,BKN,0.00,0.0,WeatherDisplay:10.37,2013-09-25 00:01:00,
2013-09-24 19:06:00,57.8,52.7,29.95,South,186,1.2,0.0,83,0.00,,BKN,0.00,0.0,WeatherDisplay:10.37,2013-09-25 00:06:00,
2013-09-24 19:11:00,57.0,52.2,29.95,South,186,2.0,2.0,84,0.00,,BKN,0.00,0.0,WeatherDisplay:10.37,2013-09-25 00:11:00,
2013-09-24 19:16:00,56.5,52.0,29.95,South,186,2.3,2.3,85,0.00,,BKN,0.00,0.0,WeatherDisplay:10.37,2013-09-25 00:16:00,
2013-09-24 19:21:00,55.7,51.9,29.95,South,186,1.2,1.2,87,0.00,,BKN,0.00,0.0,WeatherDisplay:10.37,2013-09-25 00:21:00,
2013-09-24 19:26:00,55.6,52.1,29.95,South,186,1.2,1.2,88,0.00,,BKN,0.00,0.0,WeatherDisplay:10.37,2013-09-25 00:26:00,
2013-09-24 19:31:00,55.1,51.6,29.96,South,186,0.0,0.1,88,0.00,,BKN,0.00,0.0,WeatherDisplay:10.37,2013-09-25 00:31:00,
2013-09-24 19:36:00,54.8,51.6,29.96,South,186,2.3,2.3,89,0.00,,BKN,0.00,0.0,WeatherDisplay:10.37,2013-09-25 00:36:00,
2013-09-24 19:42:00,54.5,51.3,29.96,South,186,2.3,2.3,89,0.00,,BKN,0.00,0.0,WeatherDisplay:10.37,2013-09-25 00:42:00,
2013-09-24 19:47:00,54.2,51.3,29.96,South,186,2.3,2.3,90,0.00,,BKN,0.00,0.0,WeatherDisplay:10.37,2013-09-25 00:47:00,
2013-09-24 19:52:00,53.8,51.2,29.96,South,186,1.2,1.2,91,0.00,,BKN,0.00,0.0,WeatherDisplay:10.37,2013-09-25 00:52:00,
2013-09-24 19:57:00,53.3,50.7,29.96,South,186,2.3,2.3,91,0.00,,BKN,0.00,0.0,WeatherDisplay:10.37,2013-09-25 00:57:00,
2013-09-24 20:02:00,53.1,50.5,29.96,South,186,1.2,0.0,91,0.00,,BKN,0.00,0.0,WeatherDisplay:10.37,2013-09-25 01:02:00,
2013-09-24 20:07:00,52.9,50.6,29.96,South,186,0.0,0.0,92,0.00,,BKN,0.00,0.0,WeatherDisplay:10.37,2013-09-25 01:07:00,
2013-09-24 20:12:00,52.8,50.5,29.96,South,186,2.3,2.3,92,0.00,,BKN,0.00,0.0,WeatherDisplay:10.37,2013-09-25 01:12:00,
2013-09-24 20:18:00,52.6,50.3,29.96,South,186,0.0,0.0,92,0.00,,BKN,0.00,0.0,WeatherDisplay:10.37,2013-09-25 01:18:00,
2013-09-24 20:23:00,52.3,50.0,29.96,South,186,0.0,0.0,92,0.00,,BKN,0.00,0.0,WeatherDisplay:10.37,2013-09-25 01:23:00,
2013-09-24 20:28:00,52.2,50.2,29.97,South,186,0.0,0.0,93,0.00,,BKN,0.00,0.0,WeatherDisplay:10.37,2013-09-25 01:28:00,
2013-09-24 20:33:00,52.2,50.2,29.97,South,186,1.2,0.0,93,0.00,,BKN,0.00,0.0,WeatherDisplay:10.37,2013-09-25 01:33:00,
2013-09-24 20:38:00,51.9,49.9,29.97,South,186,0.0,0.0,93,0.00,,BKN,0.00,0.0,WeatherDisplay:10.37,2013-09-25 01:38:00,
2013-09-24 20:43:00,51.6,49.6,29.97,South,186,0.0,0.0,93,0.00,,BKN,0.00,0.0,WeatherDisplay:10.37,2013-09-25 01:43:00,
2013-09-24 20:48:00,51.3,49.3,29.97,South,186,2.3,2.3,93,0.00,,BKN,0.00,0.0,WeatherDisplay:10.37,2013-09-25 01:48:00,
2013-09-24 20:53:00,51.3,49.3,29.97,South,186,3.5,3.5,93,0.00,,BKN,0.00,0.0,WeatherDisplay:10.37,2013-09-25 01:53:00,
2013-09-24 20:59:00,51.1,49.1,29.97,South,186,3.5,3.5,93,0.00,,BKN,0.00,0.0,WeatherDisplay:10.37,2013-09-25 01:59:00,
2013-09-24 21:04:00,51.1,49.1,29.97,South,186,3.5,3.5,93,0.00,,BKN,0.00,0.0,WeatherDisplay:10.37,2013-09-25 02:04:00,
2013-09-24 21:09:00,51.1,49.1,29.97,South,186,3.5,3.5,93,0.00,,BKN,0.00,0.0,WeatherDisplay:10.37,2013-09-25 02:09:00,
2013-09-24 21:14:00,51.1,49.1,29.97,South,186,3.0,3.0,93,0.00,,BKN,0.00,0.0,WeatherDisplay:10.37,2013-09-25 02:14:00,
2013-09-24 21:19:00,51.1,48.9,29.97,South,186,2.3,2.3,92,0.00,,BKN,0.00,0.0,WeatherDisplay:10.37,2013-09-25 02:19:00,
2013-09-24 21:24:00,51.0,48.8,29.97,South,186,2.3,2.3,92,0.00,,BKN,0.00,0.0,WeatherDisplay:10.37,2013-09-25 02:24:00,
2013-09-24 21:30:00,51.0,48.8,29.97,South,186,0.0,3.0,92,0.00,,BKN,0.00,0.0,WeatherDisplay:10.37,2013-09-25 02:30:00,
2013-09-24 21:35:00,50.8,48.6,29.97,South,186,0.0,0.0,92,0.00,,BKN,0.00,0.0,WeatherDisplay:10.37,2013-09-25 02:35:00,
2013-09-24 21:40:00,50.8,48.6,29.97,South,186,0.0,2.0,92,0.00,,BKN,0.00,0.0,WeatherDisplay:10.37,2013-09-25 02:40:00,
2013-09-24 21:45:00,50.7,48.5,29.97,South,186,0.0,0.0,92,0.00,,BKN,0.00,0.0,WeatherDisplay:10.37,2013-09-25 02:45:00,
2013-09-24 21:50:00,50.6,48.1,29.97,South,186,0.0,0.0,91,0.00,,BKN,0.00,0.0,WeatherDisplay:10.37,2013-09-25 02:50:00,
2013-09-24 21:55:00,50.5,48.0,29.97,South,186,0.0,0.0,91,0.00,,BKN,0.00,0.0,WeatherDisplay:10.37,2013-09-25 02:55:00,
2013-09-24 22:00:00,50.4,47.9,29.97,South,186,0.0,1.0,91,0.00,,BKN,0.00,0.0,WeatherDisplay:10.37,2013-09-25 03:00:00,
2013-09-24 22:05:00,50.2,47.7,29.97,South,186,0.0,2.0,91,0.00,,BKN,0.00,0.0,WeatherDisplay:10.37,2013-09-25 03:05:00,
2013-09-24 22:10:00,50.1,47.6,29.97,South,186,0.0,2.0,91,0.00,,BKN,0.00,0.0,WeatherDisplay:10.37,2013-09-25 03:10:00,
2013-09-24 22:15:00,49.9,47.4,29.97,South,186,2.3,2.3,91,0.00,,BKN,0.00,0.0,WeatherDisplay:10.37,2013-09-25 03:15:00,
2013-09-24 22:20:00,49.8,47.3,29.98,South,184,3.5,3.5,91,0.00,,BKN,0.00,0.0,WeatherDisplay:10.37,2013-09-25 03:20:00,
2013-09-24 22:25:00,49.6,47.1,29.98,South,184,3.0,3.0,91,0.00,,BKN,0.00,0.0,WeatherDisplay:10.37,2013-09-25 03:25:00,
2013-09-24 22:30:00,49.5,47.0,29.98,South,184,2.3,2.3,91,0.00,,BKN,0.00,0.0,WeatherDisplay:10.37,2013-09-25 03:30:00,
2013-09-24 22:35:00,49.4,46.9,29.98,South,184,2.3,2.3,91,0.00,,BKN,0.00,0.0,WeatherDisplay:10.37,2013-09-25 03:35:00,
2013-09-24 22:40:00,49.4,46.9,29.98,South,184,2.3,0.0,91,0.00,,BKN,0.00,0.0,WeatherDisplay:10.37,2013-09-25 03:40:00,
2013-09-24 22:45:00,49.2,46.7,29.98,South,184,2.3,2.3,91,0.00,,BKN,0.00,0.0,WeatherDisplay:10.37,2013-09-25 03:45:00,
2013-09-24 22:51:00,49.1,46.6,29.98,South,184,2.0,2.0,91,0.00,,BKN,0.00,0.0,WeatherDisplay:10.37,2013-09-25 03:51:00,
2013-09-24 22:56:00,49.1,46.6,29.98,South,184,3.5,3.5,91,0.00,,BKN,0.00,0.0,WeatherDisplay:10.37,2013-09-25 03:56:00,
2013-09-24 23:01:00,48.9,46.4,29.98,South,184,3.5,3.5,91,0.00,,BKN,0.00,0.0,WeatherDisplay:10.37,2013-09-25 04:01:00,
2013-09-24 23:02:00,48.9,46.4,29.98,South,184,2.3,2.3,91,0.00,,BKN,0.00,0.0,WeatherDisplay:10.37,2013-09-25 04:02:00,
2013-09-24 23:04:00,48.8,46.3,29.98,South,184,3.5,3.5,91,0.00,,BKN,0.00,0.0,WeatherDisplay:10.37,2013-09-25 04:04:00,
2013-09-24 23:09:00,48.6,46.1,29.97,South,184,5.0,5.0,91,0.00,,BKN,0.00,0.0,WeatherDisplay:10.37,2013-09-25 04:09:00,
2013-09-24 23:14:00,48.5,46.0,29.97,South,184,5.0,5.0,91,0.00,,BKN,0.00,0.0,WeatherDisplay:10.37,2013-09-25 04:14:00,
2013-09-24 23:20:00,48.3,45.8,29.97,South,184,5.0,5.0,91,0.00,,BKN,0.00,0.0,WeatherDisplay:10.37,2013-09-25 04:20:00,
2013-09-24 23:25:00,48.2,45.7,29.97,South,184,5.0,6.0,91,0.00,,BKN,0.00,0.0,WeatherDisplay:10.37,2013-09-25 04:25:00,
2013-09-24 23:30:00,48.0,45.5,29.97,South,184,3.0,5.0,91,0.00,,BKN,0.00,0.0,WeatherDisplay:10.37,2013-09-25 04:30:00,
2013-09-24 23:35:00,48.0,45.5,29.97,South,184,2.0,4.0,91,0.00,,BKN,0.00,0.0,WeatherDisplay:10.37,2013-09-25 04:35:00,
2013-09-24 23:40:00,47.9,45.4,29.97,South,184,3.5,3.5,91,0.00,,BKN,0.00,0.0,WeatherDisplay:10.37,2013-09-25 04:40:00,
2013-09-24 23:45:00,47.7,45.5,29.97,South,184,2.3,2.3,92,0.00,,BKN,0.00,0.0,WeatherDisplay:10.37,2013-09-25 04:45:00,
2013-09-24 23:50:00,47.6,45.4,29.97,South,184,3.5,3.5,92,0.00,,BKN,0.00,0.0,WeatherDisplay:10.37,2013-09-25 04:50:00,
2013-09-24 23:55:00,47.4,45.2,29.97,South,184,3.5,3.5,92,0.00,,BKN,0.00,0.0,WeatherDisplay:10.37,2013-09-25 04:55:00,